Seldovia, AK

9:09 AM AKDT on October 19, 2017 (GMT -0800)
Seldovia

Weather History for PASO - December, 2011

Change the Weather History Date:

Saturday, December 24, 2011

  Actual Average (PAHO) Record (PAHO)
Temperature  
Mean Temperature 19 °F -  
Max Temperature 23 °F 33 °F 46 °F (1962)
Min Temperature 15 °F 21 °F -9 °F (1942)
Degree Days  
Heating Degree Days 46    
Moisture  
Dew Point 16 °F    
Average Humidity 83    
Maximum Humidity 96    
Minimum Humidity 68    
Precipitation  
Precipitation 0.07 in - - ()
Sea Level Pressure  
Sea Level Pressure 29.41 in    
Wind  
Wind Speed 4 mph (NNE)    
Max Wind Speed 12 mph    
Max Gust Speed 21 mph    
Visibility 7 miles    
Events Fog , Snow    
Averages and records for this station are not official NWS values.
T = Trace of Precipitation, MM = Missing Value Source: NWS Daily Summary

Daily Weather History Graph

Daily Weather History Graph

Search for Another Location

Airport or City:

Trip Planner

Search our weather history database for the weather conditions in past years. The results will help you decide how hot, cold, wet, or windy it might be!

Date:

Astronomy

Dec. 24, 2011 Rise Set
Actual Time 10:04 AM AKST 4:08 PM AKST
Civil Twilight 9:08 AM AKST 5:04 PM AKST
Nautical Twilight 8:13 AM AKST 5:59 PM AKST
Astronomical Twilight 7:22 AM AKST 6:50 PM AKST
Moon 9:59 AM AKST (12/24) 4:37 PM AKST (12/24)
Length of Visible Light 7h 55m
Length of Day
6h 03m
New Moon, 0% of the Moon is Illuminated
Dec 24
New Moon
Dec 31
First Quarter
Jan 8
Full
Jan 16
Last Quarter
Jan 22
New

Hourly Weather History & Observations

Time (AKST) Temp. Windchill Dew Point Humidity Pressure Visibility Wind Dir Wind Speed Gust Speed Precip Events Conditions
12:53 AM 16.0 °F - 12.0 °F 84% 29.57 in 10.0 mi Calm Calm - N/A   Partly Cloudy
1:09 AM 15.8 °F - 12.2 °F 86% 29.56 in 10.0 mi Calm Calm - N/A   Mostly Cloudy
1:53 AM 18.0 °F - 17.1 °F 96% 29.56 in 10.0 mi Calm Calm - N/A   Overcast
3:53 AM 21.0 °F - 19.9 °F 96% 29.57 in 10.0 mi Calm Calm - N/A   Mostly Cloudy
4:53 AM 23.0 °F 15.8 °F 19.0 °F 85% 29.56 in 10.0 mi NE 5.8 mph - N/A   Overcast
5:53 AM 21.9 °F 15.7 °F 18.0 °F 85% 29.55 in 10.0 mi NNE 4.6 mph - N/A   Overcast
6:53 AM 21.9 °F 15.7 °F 18.0 °F 85% 29.55 in 10.0 mi NNE 4.6 mph - N/A   Overcast
7:53 AM 21.0 °F 13.4 °F 17.1 °F 85% 29.53 in 10.0 mi NNE 5.8 mph - N/A   Overcast
8:53 AM 21.0 °F 12.4 °F 17.1 °F 85% 29.52 in 10.0 mi North 6.9 mph - N/A   Overcast
9:53 AM 21.0 °F 13.4 °F 16.0 °F 81% 29.51 in 10.0 mi Variable 5.8 mph - N/A   Overcast
10:53 AM 21.9 °F 13.4 °F 18.0 °F 85% 29.49 in 9.0 mi NNE 6.9 mph - 0.00 in Snow Light Snow
11:53 AM 21.9 °F 15.7 °F 18.0 °F 85% 29.47 in 10.0 mi Variable 4.6 mph - 0.00 in   Overcast
12:53 PM 21.9 °F 14.5 °F 18.0 °F 85% 29.46 in 10.0 mi Variable 5.8 mph - N/A   Overcast
1:53 PM 21.9 °F 13.4 °F 18.0 °F 85% 29.44 in 10.0 mi North 6.9 mph - N/A   Overcast
2:53 PM 23.0 °F 14.7 °F 17.1 °F 78% 29.41 in 10.0 mi North 6.9 mph - N/A   Overcast
3:45 PM 21.2 °F 14.9 °F 17.6 °F 86% 29.39 in 1.8 mi North 4.6 mph - 0.00 in Snow Light Snow
3:53 PM 21.0 °F 12.4 °F 18.0 °F 88% 29.39 in 2.0 mi North 6.9 mph - 0.00 in Snow Light Snow
4:15 PM 21.2 °F 13.6 °F 17.6 °F 86% 29.39 in 4.0 mi NNE 5.8 mph - 0.00 in Snow Light Snow
4:42 PM 21.2 °F 12.6 °F 15.8 °F 80% 29.39 in 9.0 mi NNE 6.9 mph 16.1 mph 0.00 in   Overcast
5:45 PM 19.4 °F 12.8 °F 15.8 °F 86% 29.37 in 5.0 mi NNE 4.6 mph - 0.00 in Snow Light Snow
5:53 PM 21.0 °F 9.3 °F 15.1 °F 78% 29.37 in 8.0 mi North 11.5 mph 18.4 mph 0.00 in Snow Light Snow
6:02 PM 21.2 °F 9.5 °F 12.2 °F 68% 29.37 in 9.0 mi NNE 11.5 mph 20.7 mph 0.00 in   Overcast
6:53 PM 21.0 °F 9.9 °F 12.0 °F 68% 29.37 in 10.0 mi North 10.4 mph 16.1 mph 0.00 in   Overcast
7:07 PM 21.2 °F 9.5 °F 12.2 °F 68% 29.36 in 9.0 mi NNE 11.5 mph 16.1 mph 0.00 in Snow Light Snow
7:25 PM 21.2 °F 10.9 °F 12.2 °F 68% 29.35 in 8.0 mi North 9.2 mph - 0.00 in Snow Light Snow
7:53 PM 21.0 °F 11.4 °F 14.0 °F 74% 29.34 in 9.0 mi NNE 8.1 mph - 0.00 in Snow Light Snow
8:49 PM 21.2 °F 11.7 °F 15.8 °F 80% 29.32 in 5.0 mi NNE 8.1 mph - 0.00 in Snow Light Snow
8:53 PM 21.0 °F 13.4 °F 15.1 °F 78% 29.32 in 4.0 mi NNE 5.8 mph - 0.00 in Snow Light Snow
9:02 PM 21.2 °F 14.9 °F 15.8 °F 80% 29.32 in 5.0 mi NE 4.6 mph - 0.00 in Snow Light Snow
9:36 PM 21.2 °F 16.4 °F 15.8 °F 80% 29.31 in 7.0 mi Variable 3.5 mph - 0.00 in Snow Light Snow
9:53 PM 21.9 °F 17.2 °F 17.1 °F 82% 29.31 in 4.0 mi Variable 3.5 mph - 0.00 in Snow Light Snow
9:58 PM 21.2 °F 16.4 °F 17.6 °F 86% 29.31 in 1.8 mi Variable 3.5 mph - 0.00 in Snow Light Snow
10:04 PM 21.2 °F 14.9 °F 19.4 °F 93% 29.31 in 1.0 mi Variable 4.6 mph - 0.00 in Snow Light Snow
10:11 PM 21.2 °F 14.9 °F 19.4 °F 93% 29.30 in 0.5 mi Variable 4.6 mph - 0.01 in Fog , Snow Snow
10:21 PM 21.2 °F 14.9 °F 19.4 °F 93% 29.30 in 0.5 mi Variable 4.6 mph - 0.02 in Fog , Snow Snow
10:53 PM 19.9 °F 12.1 °F 15.1 °F 81% 29.30 in 0.8 mi Variable 5.8 mph - 0.05 in Snow Light Snow
11:53 PM 18.0 °F 8.7 °F 15.1 °F 88% 29.30 in 0.8 mi SSE 6.9 mph 19.6 mph 0.02 in Snow Light Snow